ONEWEB-0708, 61613

Orbit data source: Space-Track

ONEWEB-0708, 61613 is a payload satellite owned by Eut. One Web (UK) in LEO that was launched on Sun, 20 Oct 2024 UTC via an FALCON 9 launch vehicle from the Air Force Western Test Range (AFWTR). Payload-class satellites include a variety of spacecraft equipped with specific instruments for various scientific and technological missions. These include communications satellites like Starlink; space stations such as the ISS; scientific satellites like the Hubble; Earth observation satellites from companies like Planet Labs, Umbra, and HawkEye 360; GPS; miniature CubeSats for education and research; and military/defense satellites.

Loading next visibility...
Identifier
61613, 2024-188V
Orbit
LEO
Last TLE update
12 hours ago
Origin
Manufacturer
One Web
Mission
Operational Commercial Communications
Bus & Motor
ARROW, Unknown motor
Mass
148 kg wet, ~140 kg dry
Launch date (UTC)
2024-10-20 (9 months ago)
Launch vehicle
FALCON 9
Launch site
Air Force Western Test Range (AFWTR)
Object type
Payload
Rocket body
Debris
Shape & HBR
Trap Box + 2 Pan, 5 m
Radar Cross Section
2.032 m², Large (>1 m²)

Expand to show TLE details & history

TLE from 12 hours ago
0 ONEWEB-0708
1 61613U 24188V   25188.78840306 -.00000522  00000-0 -15320-2 0  9994
2 61613  87.8873 104.9401 0001866  52.2170 307.9127 13.10370904 38195
Epoch: 2025-07-07T18:55Z
TLE epoch observation values (Epoch: 2025-07-07T18:55:18.024Z)
Latitude
0.00007°
Longitude
-104.87771°
Altitude
1,223.741 km
Speed
7.243 km/s
True Right ascension
06h 59m 45s
True Declination
0° 00' 00"
Sunlit
Object was in daylight at epoch
Visualization orbit readout
Latitude
-62.45322°
Longitude
79.05624°
Altitude
1,247.148 km
Speed
7.23 km/s
Apparent Right ascension
07h 11m 58s
Apparent Declination
-82° 48' 17"
Sunlit
Object is in full shadow
Visualization observer readout
Local Sidereal Time
19:14:31
Azimuth
179.883° S
Elevation
-47.111°
Doppler factor
1
Orbital elements
Apogee altitude
1,220.262 km
Perigee altitude
1,217.427 km
Semi-major axis
7,596.981 km
Eccentricity
0.00019
Inclination
87.8873°
RAAN
104.9401°
Arg. of periapsis
52.217°
True anomaly
Unknown
Mean anomaly
307.9127°
Eccentric anomaly
Unknown
Mean motion
3.27779 °/min
Orbital period
109.83 mins
BSTAR
-0.001532
Loading maneuver chart data...
Loading SW <> Apogee altitude chart data...
Loading historical data...
Loading historical data...
Loading historical data...
Loading historical data...
Loading historical data...
Loading historical data...
Loading historical data...

ONEWEB-0708 Visibility forecast

Observer location: undefined°, undefined°

Span
Click to sort rows by Start time (UTC) header in descending order
Start Az.
Max El. time (UTC)
Max El. Az.
Max El.
End time (UTC)
End Az.
8 mins2025-07-08 08:23:00.584Z320.91° NNW2025-07-08 08:27:00.584Z285.168° WNW17.066°2025-07-08 08:31:00.584Z250.64° W
5 mins2025-07-08 17:06:00.584Z88.77° E2025-07-08 17:08:00.584Z71.129° E14.154°2025-07-08 17:11:00.584Z45.508° ENE
13 mins2025-07-08 18:51:00.584Z177.364° S2025-07-08 18:57:00.584Z36.735° NE44.952°2025-07-08 19:04:00.584Z1.205° NNE
6 mins2025-07-08 20:45:00.584Z263.074° W2025-07-08 20:48:00.584Z289.718° WNW14.956°2025-07-08 20:51:00.584Z315.774° NNW
13 mins2025-07-09 06:21:00.584Z4.895° NNE2025-07-09 06:27:00.584Z78.104° E43.606°2025-07-09 06:34:00.584Z172.166° S
|